User: anonymous   Login
Location: Unspecified
(0.0000°N, 0.0000°E)
Time: 04:45:52
(UTC+00:00)
Language:

Kosmos-2233 - Orbit

View from above orbital plane
View from above orbital plane
View from above satellite
View from above satellite

Ground track
Ground track

The orbit data is extracted from the following two-line orbital elements,

1 22487U 93008A   18267.55606213 +.00000063 +00000-0 +48685-4 0  9999
2 22487 082.9418 116.0298 0039467 081.9880 307.2643 13.75777553281889
Epoch (UTC): 24 September 2018 13:20:43
Eccentricity: 0.0039467
inclination: 82.9418°
perigee height: 950 km
apogee height: 1008 km
right ascension of ascending node: 116.0298°
argument of perigee: 81.9880°
revolutions per day: 13.75777553
mean anomaly at epoch: 307.2643°
orbit number at epoch: 28188

The dashed part of the orbit path shows where the satellite is in the earth's shadow,  

DLR